Home   Weather   Oradea   Past weeks

Flag for Romania Past Weather in Oradea, Romania — Yesterday and Last 2 Weeks

Now
34 °F

Clear.


Feels Like: 27 °F
Forecast: 25 / 35 °F
Wind: 8 mph from Southwest

Location: Oradea Airport

Current Time: Dec 8, 2016 at 6:17:28 pm

Latest Report: Dec 8, 2016 at 5:30 pm


Visibility: 5 mi

Pressure: 30.57 "Hg

Humidity: 81%

Dew Point: 28 °F

Location of OradeaLocation

Past Weather in Oradea — Graph

°F

Oradea Temperature Yesterday

Maximum temperature yesterday: 32 °F (at 11:30 am)
Minimum temperature yesterday: 27 °F (at 12:00 am)
Average temperature yesterday: 28 °F

High & Low Weather Summary for the Past Weeks

 TemperatureHumidityPressure
High50 °F (Nov 24, 1:30 pm)100% (Nov 23, 10:00 pm)30.77 "Hg (Nov 23, 10:00 pm)
Low21 °F (Dec 5, 4:00 am)52% (Nov 29, 1:30 pm)29.56 "Hg (Dec 2, 10:00 am)
Average34 °F86%30.23 "Hg
* Reported Nov 23 5:00 pm — Dec 8 5:00 pm, Oradea, Weather by CustomWeather, © 2016

Note: Actual official high and low records may vary slightly from our data, if they occured in-between our weather recording intervals... More about our weather records

Advertising

Oradea Weather History for the Previous 24 Hours

Scroll right to see more
 ConditionsComfort  
Time TempWeatherWind HumidityBarometerVisibility
5:00 pm
Thu, Dec 8
34 °FPassing clouds.9 mph81%30.57 "Hg6 mi
4:30 pm34 °FSunny.10 mph81%30.57 "Hg10 mi
4:00 pm34 °FSunny.10 mph81%30.57 "Hg10 mi
3:30 pm34 °FSunny.13 mph75%30.57 "Hg10 mi
3:00 pm34 °FSunny.12 mph75%30.60 "Hg10 mi
2:30 pm36 °FSunny.10 mph70%30.60 "Hg10 mi
2:00 pm34 °FSunny.10 mph75%30.60 "Hg10 mi
1:30 pm34 °FSunny.10 mph75%30.63 "Hg10 mi
1:00 pm34 °FSunny.10 mph75%30.63 "Hg10 mi
12:00 pm32 °FPassing clouds.9 mph80%30.66 "Hg6 mi
11:30 am30 °FScattered clouds.12 mph80%30.66 "HgN/A
11:00 am30 °FScattered clouds.10 mph80%30.66 "Hg5 mi
10:30 am30 °FPartly sunny.10 mph80%30.69 "Hg6 mi
10:00 am30 °FPartly sunny.10 mph80%30.69 "Hg5 mi
9:30 am30 °FPartly sunny.8 mph80%30.69 "Hg6 mi
9:00 am28 °FOvercast.8 mph86%30.69 "Hg5 mi
8:30 am28 °FPartly sunny.8 mph86%30.69 "Hg5 mi
8:00 am28 °FOvercast.5 mph86%30.72 "Hg5 mi
7:30 am28 °FPassing clouds.6 mph86%30.72 "Hg5 mi
7:00 am28 °FOvercast.6 mph86%30.72 "Hg5 mi
6:30 am28 °FPassing clouds.10 mph86%30.72 "Hg5 mi
6:00 am28 °FPassing clouds.10 mph86%30.72 "Hg4 mi
5:30 am28 °FPassing clouds.10 mph86%30.72 "Hg5 mi
4:30 am28 °FPassing clouds.9 mph86%30.72 "Hg5 mi
3:30 am28 °FLow clouds.10 mph86%30.74 "Hg4 mi
3:00 am28 °FLow clouds.9 mph86%30.74 "Hg4 mi
2:30 am28 °FMostly cloudy.10 mph86%30.74 "Hg4 mi
2:00 am28 °FLow clouds.10 mph86%30.74 "Hg5 mi
1:30 am28 °FMostly cloudy.10 mph86%30.74 "Hg4 mi
1:00 am28 °FPassing clouds.9 mph86%30.74 "Hg4 mi
12:30 am28 °FMostly cloudy.10 mph86%30.77 "Hg4 mi
12:00 am28 °FIce fog.9 mph86%30.77 "Hg3 mi
11:30 pm
Wed, Dec 7
27 °FIce fog.9 mph93%30.77 "Hg3 mi
11:00 pm27 °FIce fog.10 mph93%30.77 "Hg3 mi
10:30 pm27 °FIce fog.10 mph93%30.77 "Hg3 mi
10:00 pm28 °FIce fog.9 mph93%30.77 "Hg2 mi
9:30 pm27 °FIce fog.9 mph100%30.74 "Hg3 mi
9:00 pm27 °FIce fog.8 mph100%30.74 "Hg2 mi
8:30 pm27 °FIce fog.7 mph100%30.74 "Hg2 mi
8:00 pm27 °FIce fog.7 mph100%30.74 "Hg2 mi
7:30 pm27 °FIce fog.8 mph100%30.74 "Hg2 mi
7:00 pm27 °FIce fog.7 mph100%30.74 "Hg2 mi
6:30 pm28 °FIce fog.6 mph93%30.74 "Hg2 mi
6:00 pm28 °FIce fog.6 mph93%30.74 "Hg3 mi
Weather by CustomWeather, © 2016

See weather overviewHow to use our weather pages